Location: Luxembourg
(49.6117°N, 6.1300°E)
Time: 19:20:39
(UTC+01:00)

ACS3 Solar Sail - Visible Passes

Search period start: 13 March 2026 00:00
Search period end: 23 March 2026 00:00
Orbit: 884 x 975 km, 97.2° (Epoch: 12 March)

Date Brightness Start Highest point End Pass type
(mag) Time Alt. Az. Time Alt. Az. Time Alt. Az.
13 Mar 3.3 02:08:53 10° NNE 02:11:34 28° NNE 02:11:34 28° NNE visible
13 Mar 3.2 03:52:08 10° N 03:55:15 23° NW 03:55:15 23° NW visible
14 Mar 3.1 02:20:07 10° NNE 02:23:04 32° NNE 02:23:04 32° NNE visible
14 Mar 3.2 04:03:38 10° N 04:06:45 20° NW 04:06:45 20° NW visible
15 Mar 4.2 00:50:11 10° NE 00:50:51 12° NE 00:50:51 12° NE visible
15 Mar 2.9 02:31:19 10° NNE 02:34:32 35° N 02:34:32 35° N visible
15 Mar 3.3 04:15:08 10° NNW 04:18:12 18° NW 04:18:12 18° NW visible
16 Mar 4.0 01:00:54 10° NE 01:02:16 15° NE 01:02:16 15° NE visible
16 Mar 2.8 02:42:30 10° N 02:45:56 38° N 02:45:56 38° N visible
16 Mar 3.5 04:26:42 10° NNW 04:29:36 15° NW 04:29:36 15° NW visible
17 Mar 3.9 01:11:41 10° NE 01:13:37 18° NE 01:13:37 18° NE visible
17 Mar 2.7 02:53:40 10° N 02:57:18 38° NNW 02:57:18 38° NNW visible
17 Mar 3.6 04:38:24 10° NNW 04:40:45 13° NW 04:40:58 13° NW visible
18 Mar 3.7 01:22:32 10° NNE 01:24:56 22° NE 01:24:56 22° NE visible
18 Mar 2.7 03:04:49 10° N 03:08:36 37° NNW 03:08:36 37° NNW visible
18 Mar 3.7 04:50:35 10° NW 04:51:35 10° NW 04:52:16 10° NW visible
19 Mar 3.4 01:33:22 10° NNE 01:36:12 26° NE 01:36:12 26° NE visible
19 Mar 2.7 03:15:56 10° N 03:19:51 35° NNW 03:19:51 35° NNW visible
20 Mar 3.2 01:44:12 10° NNE 01:47:25 31° NE 01:47:25 31° NE visible
20 Mar 2.8 03:27:01 10° N 03:31:05 32° NW 03:31:05 32° NW visible
21 Mar 3.0 01:55:03 10° NNE 01:58:35 36° NE 01:58:35 36° NE visible
21 Mar 2.9 03:38:06 10° N 03:42:14 28° NW 03:42:14 28° NW visible
22 Mar 4.3 00:26:01 10° ENE 00:26:03 10° ENE 00:26:03 10° ENE visible
22 Mar 2.7 02:05:52 10° NNE 02:09:42 42° NNE 02:09:42 42° NNE visible
22 Mar 3.0 03:49:10 10° N 03:53:21 24° NW 03:53:21 24° NW visible
